User: anonymous   Login
Location: State Camp
(41.2367°N, 77.7828°W)
Time: 23:40:54
(UTC-05:00)
Language:

Lacrosse 5 - Orbit

View from above orbital plane
View from above orbital plane
View from above satellite
View from above satellite

Ground track
Ground track

The orbit data is extracted from the following two-line orbital elements,

1 28646U 05016A   17018.78007288 0.00000000  00000-0  00000-0 0    08
2 28646  57.0130 323.7225 0004000  60.7049 299.2951 14.51761032    05
Epoch (UTC): 18 January 2017 18:43:18
Eccentricity: 0.0004000
inclination: 57.0130°
perigee height: 717 km
apogee height: 723 km
right ascension of ascending node: 323.7225°
argument of perigee: 60.7049°
revolutions per day: 14.51761032
mean anomaly at epoch: 299.2951°
orbit number at epoch: 0

The dashed part of the orbit path shows where the satellite is in the earth's shadow,  

DLR